When you browse on this site, cookies collect data to enhance your experience and personalize the content and advertising you see.
Visit our Privacy Policy to learn more. By continuing to use the site, you agree to this use of cookies and data.
  • En España
  • Lista de países
  • Para 7 días
  • Temperatura del agua
  • Mapa Satelital
  • El tiempo en el mapa
  • Informadores
  • user-avatar
    Iniciar sesión

    Tiempo cada hora Bolgatanga

    Hoy, 21 Noviembre, Miércoles

    Tiempo Temperatura Precipitaciones Viento Presión Humedad
    00:00 +32°C° 0 mm 1 mps 741 mmHg 30%
    01:00 +31°C° 0 mm 1 mps 741 mmHg 30%
    02:00 +31°C° 0 mm 1 mps 741 mmHg 30%
    03:00 +31°C° 0 mm 1 mps 741 mmHg 30%
    04:00 +30°C° 0 mm 1 mps 741 mmHg 30%
    05:00 +30°C° 0 mm 1 mps 741 mmHg 29%
    06:00 +30°C° 0 mm 1 mps 742 mmHg 29%
    07:00 +31°C° 0 mm 1 mps 742 mmHg 30%
    08:00 +34°C° 0 mm 2 mps 742 mmHg 30%
    09:00 +36°C° 0 mm 2 mps 743 mmHg 30%
    10:00 +38°C° 0 mm 2 mps 742 mmHg 26%
    11:00 +39°C° 0 mm 2 mps 742 mmHg 22%
    12:00 +41°C° 0 mm 2 mps 742 mmHg 18%
    13:00 +42°C° 0 mm 2 mps 741 mmHg 16%
    14:00 +42°C° 0 mm 2 mps 740 mmHg 14%
    15:00 +43°C° 0 mm 3 mps 740 mmHg 13%
    16:00 +40°C° 0 mm 2 mps 740 mmHg 13%
    17:00 +39°C° 0 mm 2 mps 740 mmHg 14%
    18:00 +37°C° 0 mm 2 mps 740 mmHg 14%
    19:00 +36°C° 0 mm 2 mps 740 mmHg 15%
    20:00 +34°C° 0 mm 1 mps 741 mmHg 15%
    21:00 +33°C° 0 mm 1 mps 741 mmHg 16%
    22:00 +32°C° 0 mm 2 mps 741 mmHg 16%
    23:00 +31°C° 0 mm 2 mps 741 mmHg 16%

    Mañana, 22 Noviembre, Jueves

    Tiempo Temperatura Precipitaciones Viento Presión Humedad
    00:00 +31°C° 0 mm 3 mps 741 mmHg 16%
    01:00 +30°C° 0 mm 3 mps 741 mmHg 16%
    02:00 +29°C° 0 mm 3 mps 741 mmHg 16%
    03:00 +29°C° 0 mm 3 mps 740 mmHg 16%
    04:00 +28°C° 0 mm 3 mps 740 mmHg 16%
    05:00 +28°C° 0 mm 2 mps 741 mmHg 16%
    06:00 +27°C° 0 mm 2 mps 741 mmHg 16%
    07:00 +29°C° 0 mm 3 mps 741 mmHg 15%
    08:00 +33°C° 0 mm 3 mps 742 mmHg 14%
    09:00 +35°C° 0 mm 3 mps 742 mmHg 14%
    10:00 +37°C° 0 mm 3 mps 742 mmHg 13%
    11:00 +39°C° 0 mm 3 mps 742 mmHg 13%
    12:00 +42°C° 0 mm 3 mps 741 mmHg 12%
    13:00 +42°C° 0 mm 3 mps 740 mmHg 12%
    14:00 +43°C° 0 mm 3 mps 740 mmHg 11%
    15:00 +42°C° 0 mm 2 mps 739 mmHg 10%
    16:00 +40°C° 0 mm 2 mps 739 mmHg 11%
    17:00 +38°C° 0 mm 2 mps 739 mmHg 11%
    18:00 +36°C° 0 mm 2 mps 739 mmHg 12%
    19:00 +35°C° 0 mm 2 mps 740 mmHg 12%
    20:00 +34°C° 0 mm 2 mps 740 mmHg 11%
    21:00 +32°C° 0 mm 1 mps 741 mmHg 11%
    22:00 +31°C° 0 mm 1 mps 741 mmHg 11%
    23:00 +31°C° 0 mm 1 mps 740 mmHg 11%

    Pasado mañana, 23 Noviembre, Viernes

    Tiempo Temperatura Precipitaciones Viento Presión Humedad
    00:00 +30°C° 0 mm 1 mps 740 mmHg 11%
    01:00 +30°C° 0 mm 1 mps 740 mmHg 12%
    02:00 +29°C° 0 mm 2 mps 740 mmHg 12%
    03:00 +28°C° 0 mm 2 mps 740 mmHg 12%
    04:00 +28°C° 0 mm 2 mps 740 mmHg 13%
    05:00 +27°C° 0 mm 2 mps 740 mmHg 14%
    06:00 +26°C° 0 mm 1 mps 741 mmHg 14%
    07:00 +29°C° 0 mm 2 mps 741 mmHg 15%
    08:00 +32°C° 0 mm 2 mps 742 mmHg 16%
    09:00 +35°C° 0 mm 2 mps 742 mmHg 17%
    10:00 +37°C° 0 mm 2 mps 742 mmHg 16%
    11:00 +39°C° 0 mm 2 mps 741 mmHg 15%
    12:00 +42°C° 0 mm 3 mps 741 mmHg 14%
    13:00 +41°C° 0 mm 2 mps 740 mmHg 14%
    14:00 +41°C° 0 mm 2 mps 739 mmHg 14%
    15:00 +42°C° 0 mm 2 mps 738 mmHg 14%
    16:00 +40°C° 0 mm 2 mps 738 mmHg 16%
    17:00 +37°C° 0 mm 1 mps 738 mmHg 18%
    18:00 +35°C° 0 mm 1 mps 738 mmHg 20%
    19:00 +34°C° 0 mm 1 mps 739 mmHg 20%
    20:00 +33°C° 0 mm 1 mps 740 mmHg 21%
    21:00 +33°C° 0 mm 1 mps 740 mmHg 21%
    22:00 +32°C° 0 mm 1 mps 740 mmHg 21%
    23:00 +32°C° 0 mm 1 mps 740 mmHg 22%

    24 Noviembre, Sábado

    Tiempo Temperatura Precipitaciones Viento Presión Humedad
    00:00 +29°C° 0 mm 0 mps 740 mmHg 22%
    01:00 +31°C° 0 mm 1 mps 740 mmHg 24%
    02:00 +30°C° 0 mm 1 mps 740 mmHg 27%
    03:00 +30°C° 0 mm 1 mps 739 mmHg 30%
    04:00 +29°C° 0 mm 1 mps 740 mmHg 33%
    05:00 +29°C° 0 mm 1 mps 740 mmHg 36%
    06:00 +28°C° 0 mm 1 mps 741 mmHg 40%
    07:00 +30°C° 0 mm 1 mps 741 mmHg 39%
    08:00 +32°C° 0 mm 2 mps 742 mmHg 38%
    09:00 +35°C° 0 mm 2 mps 743 mmHg 37%
    10:00 +37°C° 0 mm 2 mps 742 mmHg 32%
    11:00 +40°C° 0 mm 1 mps 742 mmHg 27%
    12:00 +42°C° 0 mm 1 mps 741 mmHg 22%
    13:00 +42°C° 0 mm 1 mps 740 mmHg 20%
    14:00 +42°C° 0 mm 1 mps 739 mmHg 18%
    15:00 +43°C° 0 mm 1 mps 739 mmHg 16%
    16:00 +41°C° 0 mm 1 mps 739 mmHg 18%
    17:00 +39°C° 0 mm 1 mps 739 mmHg 20%
    18:00 +37°C° 0 mm 1 mps 739 mmHg 21%
    19:00 +37°C° 0 mm 2 mps 740 mmHg 22%
    20:00 +36°C° 0 mm 2 mps 740 mmHg 23%
    21:00 +36°C° 0 mm 2 mps 741 mmHg 24%
    22:00 +34°C° 0 mm 1 mps 741 mmHg 25%
    23:00 +34°C° 0 mm 1 mps 741 mmHg 25%

    25 Noviembre, Domingo

    Tiempo Temperatura Precipitaciones Viento Presión Humedad
    00:00 +33°C° 0 mm 1 mps 740 mmHg 26%
    01:00 +33°C° 0 mm 1 mps 740 mmHg 28%
    02:00 +32°C° 0 mm 1 mps 740 mmHg 29%
    03:00 +32°C° 0 mm 1 mps 740 mmHg 30%
    04:00 +31°C° 0 mm 1 mps 740 mmHg 28%
    05:00 +31°C° 0 mm 1 mps 740 mmHg 26%
    06:00 +30°C° 0 mm 2 mps 741 mmHg 24%
    07:00 +32°C° 0 mm 2 mps 741 mmHg 20%
    08:00 +36°C° 0 mm 3 mps 742 mmHg 16%
    09:00 +38°C° 0 mm 3 mps 742 mmHg 11%
    10:00 +39°C° 0 mm 3 mps 742 mmHg 11%
    11:00 +42°C° 0 mm 3 mps 741 mmHg 10%
    12:00 +43°C° 0 mm 3 mps 740 mmHg 9%
    13:00 +43°C° 0 mm 3 mps 740 mmHg 8%
    14:00 +44°C° 0 mm 3 mps 739 mmHg 8%
    15:00 +44°C° 0 mm 3 mps 738 mmHg 7%
    16:00 +42°C° 0 mm 3 mps 738 mmHg 8%
    17:00 +39°C° 0 mm 2 mps 738 mmHg 9%
    18:00 +36°C° 0 mm 2 mps 738 mmHg 10%
    19:00 +35°C° 0 mm 2 mps 739 mmHg 10%
    20:00 +33°C° 0 mm 1 mps 739 mmHg 11%
    21:00 +32°C° 0 mm 1 mps 740 mmHg 11%
    22:00 +32°C° 0 mm 1 mps 740 mmHg 11%
    23:00 +31°C° 0 mm 2 mps 739 mmHg 11%

    26 Noviembre, Lunes

    Tiempo Temperatura Precipitaciones Viento Presión Humedad
    00:00 +31°C° 0 mm 2 mps 739 mmHg 11%
    01:00 +30°C° 0 mm 2 mps 739 mmHg 11%
    02:00 +29°C° 0 mm 2 mps 739 mmHg 11%
    03:00 +29°C° 0 mm 3 mps 738 mmHg 11%
    04:00 +28°C° 0 mm 2 mps 739 mmHg 12%
    05:00 +27°C° 0 mm 2 mps 739 mmHg 12%
    06:00 +26°C° 0 mm 2 mps 740 mmHg 13%
    07:00 +29°C° 0 mm 2 mps 740 mmHg 16%
    08:00 +31°C° 0 mm 2 mps 741 mmHg 19%
    09:00 +35°C° 0 mm 3 mps 741 mmHg 23%
    10:00 +36°C° 0 mm 3 mps 741 mmHg 21%
    11:00 +38°C° 0 mm 2 mps 740 mmHg 19%
    12:00 +40°C° 0 mm 2 mps 740 mmHg 18%
    13:00 +41°C° 0 mm 2 mps 739 mmHg 17%
    14:00 +41°C° 0 mm 2 mps 738 mmHg 15%
    15:00 +42°C° 0 mm 2 mps 737 mmHg 14%
    16:00 +40°C° 0 mm 2 mps 738 mmHg 15%
    17:00 +38°C° 0 mm 2 mps 738 mmHg 16%
    18:00 +36°C° 0 mm 2 mps 738 mmHg 18%
    19:00 +35°C° 0 mm 2 mps 739 mmHg 17%
    20:00 +34°C° 0 mm 2 mps 739 mmHg 16%
    21:00 +32°C° 0 mm 2 mps 740 mmHg 15%
    22:00 +32°C° 0 mm 2 mps 739 mmHg 15%
    23:00 +31°C° 0 mm 1 mps 739 mmHg 14%
    Mostrar más